Погода в Сент-Максиме

Франция     43°18′29″N   6°38′22″E
темп.,
°C
ветер,
м/с
пор.,
м/с
влажн.,
%
обл.,
%
осадки,
мм/ч
давл.,
гПа
погр.,
м
16 апреля, пт
пт1623:00+12св67645 0.0 10191108
02:00+11с346546 0.0 1018573
05:00+10с336390 0.0 1017332
08:00+11с235972 0.0 1017524
11:00+11всв34555 0.0 1017688
14:00+12в77625 0.0 1017986
17:00+12вюв45629 0.0 10161013
20:00+13в235110 0.1 10161121
17 апреля, сб
сб1723:00+11зсз657092 0.7 1017241
02:00+10сз557074 0.9 1016235
05:00+10сз5571100 0.0 1014218
08:00+9ссз336998 0.0 1015262
11:00+11ссз225830 0.0 1015338
14:00+12ю335317 0.0 1014373
17:00+13ю23454 0.0 1013496
20:00+13зюз22475 0.0 1013285
18 апреля, вс
вс1823:00+13зсз5551100 0.0 1014340
02:00+12сз4463100 0.0 1013167
05:00+11ссз33635 0.0 1013224
08:00+11ссз336419 0.0 1014199
11:00+13ссз115324 0.0 1015237
14:00+13ю5560100 0.0 1015451
17:00+14ююз785655 0.0 1013583
20:00+15ююз67584 0.0 1013389
19 апреля, пн
пн1923:00+14юв33660 0.0 1014322
02:00+14св44650 0.0 1014587
05:00+13ссв34660 0.0 1014481
08:00+11ссз43691 0.0 1015198
11:00+13всв23654 0.0 1015347
14:00+14юв43642 0.0 1014645
17:00+14ю336472 0.0 1013623
20:00+13ю33645 0.0 1013349
20 апреля, вт
вт2023:00+14ююз34656 0.0 1014571
02:00+14св22675 0.0 1014481
05:00+13ссв34725 0.0 1013491
08:00+13ссв457523 0.0 1013502
11:00+14св5474100 0.0 1014636
14:00+14вюв1272100 0.1 1014443
17:00+14зюз5670100 0.4 1013637
20:00+14зюз2367100 0.6 1013364